| time (UTC) | temp F | wind direction | speed MPH | gust MPH | rain 1hr in | rain 24hr in | rain mn in | humidity % | barometer mb |
| 20260905211609 | 76 | 254 | 2.0 | 3.0 | 0.00 | 0.00 | 0.00 | 88 | 1054.3 |
| 20260905211105 | 76 | 259 | 1.0 | 1.0 | 0.00 | 0.00 | 0.00 | 88 | 1054.2 |
| 20260905210602 | 76 | 47 | 2.0 | 6.0 | 0.00 | 0.00 | 0.00 | 88 | 1054.3 |
| 20260905210055 | 76 | 197 | 3.0 | 6.0 | 0.00 | 0.00 | 0.00 | 89 | 1054.4 |
| 20260905205554 | 76 | 66 | 2.0 | 7.0 | 0.00 | 0.00 | 0.00 | 88 | 1054.3 |
| 20260905205049 | 76 | 67 | 2.0 | 4.0 | 0.00 | 0.00 | 0.00 | 88 | 1054.3 |
| 20260905204549 | 76 | 245 | 0.0 | 3.0 | 0.00 | 0.00 | 0.00 | 88 | 1054.5 |
| 20260905204044 | 76 | 79 | 2.0 | 6.0 | 0.00 | 0.00 | 0.00 | 87 | 1054.4 |
| 20260905203543 | 76 | 213 | 1.0 | 8.0 | 0.00 | 0.00 | 0.00 | 87 | 1054.2 |
| 20260905203039 | 76 | 71 | 2.0 | 8.0 | 0.00 | 0.00 | 0.00 | 87 | 1054.1 |
| 20260905202534 | 77 | 66 | 4.0 | 9.0 | 0.00 | 0.00 | 0.00 | 87 | 1054.0 |
| 20260905202030 | 77 | 23 | 4.0 | 8.0 | 0.00 | 0.00 | 0.00 | 87 | 1053.8 |
| 20260905201525 | 77 | 41 | 3.0 | 9.0 | 0.00 | 0.00 | 0.00 | 87 | 1054.0 |
| 20260905201024 | 78 | 51 | 3.0 | 4.0 | 0.00 | 0.00 | 0.00 | 86 | 1054.3 |
| 20260905200520 | 79 | 78 | 2.0 | 6.0 | 0.00 | 0.00 | 0.00 | 86 | 1054.2 |
| 20260905200014 | 79 | 161 | 2.0 | 10.0 | 0.00 | 0.00 | 0.00 | 86 | 1054.1 |
| 20260905195509 | 79 | 74 | 2.0 | 6.0 | 0.00 | 0.00 | 0.00 | 86 | 1054.1 |
| 20260905195004 | 79 | 57 | 5.0 | 8.0 | 0.00 | 0.00 | 0.00 | 85 | 1054.3 |
| 20260905194504 | 79 | 100 | 6.0 | 9.0 | 0.00 | 0.00 | 0.00 | 85 | 1054.1 |
| 20260905194004 | 79 | 52 | 6.0 | 9.0 | 0.00 | 0.00 | 0.00 | 87 | 1053.7 |
| 20260905193504 | 79 | 23 | 9.0 | 13.0 | 0.00 | 0.00 | 0.00 | 87 | 1053.9 |
| 20260905192959 | 79 | 58 | 1.0 | 7.0 | 0.00 | 0.00 | 0.00 | 86 | 1053.9 |
| 20260905192454 | 79 | 48 | 3.0 | 10.0 | 0.00 | 0.00 | 0.00 | 87 | 1053.9 |
| 20260905191950 | 79 | 139 | 2.0 | 9.0 | 0.00 | 0.00 | 0.00 | 88 | 1053.8 |
| 20260905191449 | 79 | 341 | 4.0 | 9.0 | 0.00 | 0.00 | 0.00 | 87 | 1054.1 |
| 20260905190948 | 79 | 37 | 4.0 | 7.0 | 0.00 | 0.00 | 0.00 | 87 | 1054.6 |
| 20260905190447 | 79 | 92 | 3.0 | 4.0 | 0.00 | 0.00 | 0.00 | 87 | 1054.9 |
| 20260905185945 | 79 | 68 | 1.0 | 6.0 | 0.00 | 0.00 | 0.00 | 87 | 1054.9 |
| 20260905185441 | 79 | 89 | 2.0 | 4.0 | 0.00 | 0.00 | 0.00 | 87 | 1055.3 |
| 20260905184939 | 80 | 51 | 1.0 | 3.0 | 0.00 | 0.00 | 0.00 | 87 | 1055.4 |
| 20260905184434 | 79 | 139 | 0.0 | 2.0 | 0.00 | 0.00 | 0.00 | 88 | 1055.6 |
| 20260905183933 | 78 | 94 | 4.0 | 6.0 | 0.00 | 0.00 | 0.00 | 88 | 1055.7 |
| 20260905183422 | 78 | 72 | 2.0 | 6.0 | 0.00 | 0.00 | 0.00 | 89 | 1055.8 |
| 20260905182918 | 77 | 10 | 1.0 | 3.0 | 0.00 | 0.00 | 0.00 | 90 | 1055.9 |
| 20260905182416 | 78 | 94 | 0.0 | 3.0 | 0.00 | 0.00 | 0.00 | 90 | 1055.9 |
| 20260905181912 | 78 | 61 | 2.0 | 2.0 | 0.00 | 0.00 | 0.00 | 90 | 1056.1 |
| 20260905181406 | 78 | 66 | 4.0 | 6.0 | 0.00 | 0.00 | 0.00 | 90 | 1056.0 |
| 20260905180906 | 78 | 14 | 1.0 | 2.0 | 0.00 | 0.00 | 0.00 | 91 | 1056.0 |
| 20260905180401 | 78 | 276 | 1.0 | 2.0 | 0.00 | 0.00 | 0.00 | 91 | 1056.1 |
| 20260905175901 | 77 | 72 | 1.0 | 3.0 | 0.00 | 0.00 | 0.00 | 92 | 1056.2 |
| 20260905175400 | 77 | 236 | 0.0 | 3.0 | 0.00 | 0.00 | 0.00 | 93 | 1056.2 |
| 20260905174855 | 76 | 252 | 1.0 | 2.0 | 0.00 | 0.00 | 0.00 | 94 | 1056.4 |
| 20260905174351 | 76 | 68 | 2.0 | 3.0 | 0.00 | 0.00 | 0.00 | 94 | 1056.4 |
| 20260905173847 | 77 | 246 | 1.0 | 2.0 | 0.00 | 0.00 | 0.00 | 91 | 1056.7 |
| 20260905173343 | 77 | 255 | 1.0 | 2.0 | 0.00 | 0.00 | 0.00 | 91 | 1056.5 |
| 20260905172838 | 78 | 29 | 1.0 | 2.0 | 0.00 | 0.00 | 0.00 | 91 | 1056.3 |
| 20260905172335 | 77 | 249 | 0.0 | 2.0 | 0.00 | 0.00 | 0.00 | 92 | 1056.2 |
| 20260905171832 | 77 | 335 | 2.0 | 4.0 | 0.00 | 0.00 | 0.00 | 92 | 1056.2 |
| 20260905171329 | 76 | 193 | 2.0 | 4.0 | 0.00 | 0.00 | 0.00 | 94 | 1056.4 |
| 20260905170825 | 76 | 61 | 3.0 | 4.0 | 0.00 | 0.00 | 0.00 | 94 | 1056.3 |
| 20260905170320 | 75 | 247 | 0.0 | 1.0 | 0.00 | 0.00 | 0.00 | 95 | 1056.3 |
| 20260905165819 | 75 | 246 | 0.0 | 2.0 | 0.00 | 0.00 | 0.00 | 96 | 1056.5 |
| 20260905165310 | 75 | 39 | 2.0 | 3.0 | 0.00 | 0.00 | 0.00 | 96 | 1056.5 |
| 20260905164809 | 75 | 274 | 0.0 | 1.0 | 0.00 | 0.00 | 0.00 | 97 | 1056.9 |
| 20260905164304 | 75 | 178 | 1.0 | 1.0 | 0.00 | 0.00 | 0.00 | 96 | 1057.0 |
| 20260905163759 | 75 | 281 | 1.0 | 2.0 | 0.00 | 0.00 | 0.00 | 97 | 1056.7 |
| 20260905163255 | 75 | 225 | 0.0 | 1.0 | 0.00 | 0.00 | 0.00 | 97 | 1056.5 |
| 20260905162751 | 74 | 76 | 2.0 | 3.0 | 0.00 | 0.00 | 0.00 | 97 | 1056.6 |
| 20260905162251 | 74 | 50 | 2.0 | 2.0 | 0.00 | 0.00 | 0.00 | 98 | 1056.4 |
| 20260905161745 | 74 | 286 | 1.0 | 2.0 | 0.00 | 0.00 | 0.00 | 98 | 1056.3 |
| 20260905161244 | 74 | 63 | 3.0 | 6.0 | 0.00 | 0.00 | 0.00 | 99 | 1056.3 |
| 20260905160743 | 74 | 107 | 2.0 | 2.0 | 0.00 | 0.00 | 0.00 | 99 | 1056.2 |
| 20260905160243 | 74 | 233 | 1.0 | 1.0 | 0.00 | 0.00 | 0.00 | 99 | 1056.0 |
| 20260905155738 | 74 | 55 | 2.0 | 3.0 | 0.00 | 0.00 | 0.00 | 99 | 1056.1 |
| 20260905155237 | 74 | 14 | 1.0 | 2.0 | 0.00 | 0.00 | 0.00 | 99 | 1055.9 |
| 20260905154731 | 74 | 261 | 0.0 | 1.0 | 0.00 | 0.00 | 0.00 | 99 | 1056.2 |
| 20260905154228 | 74 | 167 | 0.0 | 1.0 | 0.00 | 0.00 | 0.00 | 99 | 1055.9 |
| 20260905153723 | 74 | 24 | 2.0 | 3.0 | 0.00 | 0.00 | 0.00 | 99 | 1056.0 |
| 20260905153219 | 73 | 265 | 0.0 | 3.0 | 0.00 | 0.00 | 0.00 | 99 | 1056.0 |
| 20260905152718 | 73 | 249 | 0.0 | 2.0 | 0.00 | 0.00 | 0.00 | 99 | 1056.0 |
| 20260905152213 | 73 | 328 | 1.0 | 3.0 | 0.00 | 0.00 | 0.00 | 99 | 1056.0 |
| 20260905151712 | 73 | 234 | 1.0 | 1.0 | 0.00 | 0.00 | 0.00 | 99 | 1055.8 |
| 20260905151209 | 73 | 214 | 0.0 | 2.0 | 0.00 | 0.00 | 0.00 | 99 | 1055.7 |
| 20260905150703 | 73 | 237 | 0.0 | 1.0 | 0.00 | 0.00 | 0.00 | 99 | 1055.8 |
| 20260905150202 | 73 | 344 | 2.0 | 2.0 | 0.00 | 0.00 | 0.00 | 99 | 1055.6 |
| 20260905145701 | 73 | 260 | 1.0 | 2.0 | 0.00 | 0.00 | 0.00 | 99 | 1055.8 |
| 20260905145200 | 73 | 358 | 1.0 | 3.0 | 0.00 | 0.00 | 0.00 | 99 | 1055.8 |
| 20260905144655 | 73 | 317 | 2.0 | 3.0 | 0.00 | 0.00 | 0.00 | 99 | 1055.7 |
| 20260905144155 | 73 | 235 | 0.0 | 3.0 | 0.00 | 0.00 | 0.00 | 99 | 1055.7 |
| 20260905143654 | 73 | 244 | 0.0 | 1.0 | 0.00 | 0.00 | 0.00 | 99 | 1055.6 |
| 20260905143148 | 73 | 230 | 0.0 | 0.0 | 0.00 | 0.00 | 0.00 | 99 | 1055.6 |
| 20260905142648 | 73 | 43 | 2.0 | 2.0 | 0.00 | 0.00 | 0.00 | 99 | 1055.5 |
| 20260905142147 | 73 | 243 | 0.0 | 1.0 | 0.00 | 0.00 | 0.00 | 99 | 1055.4 |
| 20260905141642 | 73 | 219 | 0.0 | 1.0 | 0.00 | 0.00 | 0.00 | 99 | 1055.3 |
| 20260905141138 | 73 | 236 | 0.0 | 1.0 | 0.00 | 0.00 | 0.00 | 99 | 1055.3 |
| 20260905140628 | 72 | 248 | 0.0 | 1.0 | 0.00 | 0.00 | 0.00 | 99 | 1055.1 |
| 20260905140127 | 73 | 250 | 0.0 | 1.0 | 0.00 | 0.00 | 0.00 | 99 | 1055.1 |
| 20260905135622 | 72 | 216 | 0.0 | 1.0 | 0.00 | 0.00 | 0.00 | 99 | 1054.9 |
| 20260905135117 | 72 | 159 | 0.0 | 2.0 | 0.00 | 0.00 | 0.00 | 99 | 1054.8 |
| 20260905134612 | 72 | 177 | 0.0 | 1.0 | 0.00 | 0.00 | 0.00 | 99 | 1054.8 |
| 20260905134110 | 72 | 224 | 1.0 | 2.0 | 0.00 | 0.00 | 0.00 | 99 | 1055.1 |
| 20260905133607 | 72 | 258 | 0.0 | 2.0 | 0.00 | 0.00 | 0.00 | 99 | 1054.9 |
| 20260905133106 | 72 | 301 | 1.0 | 2.0 | 0.00 | 0.00 | 0.00 | 99 | 1054.7 |
| 20260905132606 | 72 | 290 | 1.0 | 2.0 | 0.00 | 0.00 | 0.00 | 99 | 1054.6 |
| 20260905132101 | 72 | 293 | 1.0 | 2.0 | 0.00 | 0.00 | 0.00 | 99 | 1054.7 |
| 20260905131556 | 71 | 295 | 0.0 | 2.0 | 0.00 | 0.00 | 0.00 | 99 | 1054.6 |
| 20260905131051 | 71 | 244 | 0.0 | 0.0 | 0.00 | 0.00 | 0.00 | 99 | 1054.2 |
| 20260905130550 | 71 | 244 | 0.0 | 0.0 | 0.00 | 0.00 | 0.00 | 99 | 1054.2 |
| 20260905130046 | 71 | 243 | 0.0 | 0.0 | 0.00 | 0.00 | 0.00 | 99 | 1054.2 |
| 20260905125545 | 71 | 230 | 0.0 | 0.0 | 0.00 | 0.00 | 0.00 | 99 | 1054.2 |
| 20260905125041 | 71 | 240 | 0.0 | 0.0 | 0.00 | 0.00 | 0.00 | 99 | 1054.0 |
| 20260905124537 | 71 | 232 | 0.0 | 0.0 | 0.00 | 0.00 | 0.00 | 99 | 1053.9 |
| 20260905124033 | 70 | 230 | 0.0 | 0.0 | 0.00 | 0.00 | 0.00 | 99 | 1053.8 |
| 20260905123528 | 70 | 233 | 0.0 | 0.0 | 0.00 | 0.00 | 0.00 | 99 | 1053.8 |
| 20260905123025 | 70 | 220 | 0.0 | 0.0 | 0.00 | 0.00 | 0.00 | 99 | 1053.7 |
| 20260905122519 | 70 | 238 | 0.0 | 0.0 | 0.00 | 0.00 | 0.00 | 99 | 1053.6 |
| 20260905122014 | 70 | 243 | 0.0 | 0.0 | 0.00 | 0.00 | 0.00 | 99 | 1053.4 |
| 20260905121509 | 70 | 171 | 0.0 | 0.0 | 0.00 | 0.00 | 0.00 | 99 | 1053.7 |
| 20260905121009 | 69 | 242 | 0.0 | 0.0 | 0.00 | 0.00 | 0.00 | 99 | 1053.6 |
| 20260905120503 | 69 | 233 | 0.0 | 0.0 | 0.00 | 0.00 | 0.00 | 99 | 1053.3 |
| 20260905115958 | 69 | 220 | 0.0 | 1.0 | 0.00 | 0.00 | 0.00 | 99 | 1053.3 |
| 20260905115457 | 70 | 246 | 1.0 | 1.0 | 0.00 | 0.00 | 0.00 | 99 | 1053.4 |
| 20260905114952 | 70 | 63 | 1.0 | 2.0 | 0.00 | 0.00 | 0.00 | 99 | 1053.6 |
| 20260905114451 | 70 | 244 | 0.0 | 1.0 | 0.00 | 0.00 | 0.00 | 99 | 1053.5 |
| 20260905113950 | 70 | 242 | 0.0 | 0.0 | 0.00 | 0.00 | 0.00 | 99 | 1053.6 |
| 20260905113446 | 70 | 236 | 0.0 | 0.0 | 0.00 | 0.00 | 0.00 | 99 | 1053.4 |
| 20260905112941 | 70 | 226 | 0.0 | 0.0 | 0.00 | 0.00 | 0.00 | 99 | 1053.5 |
| 20260905112436 | 70 | 235 | 0.0 | 0.0 | 0.00 | 0.00 | 0.00 | 99 | 1053.4 |
| 20260905111931 | 70 | 232 | 0.0 | 0.0 | 0.00 | 0.00 | 0.00 | 99 | 1053.5 |
| 20260905111431 | 70 | 225 | 0.0 | 0.0 | 0.00 | 0.00 | 0.00 | 99 | 1053.2 |
| 20260905110926 | 70 | 226 | 0.0 | 0.0 | 0.00 | 0.00 | 0.00 | 99 | 1053.1 |
| 20260905110419 | 70 | 226 | 0.0 | 0.0 | 0.00 | 0.00 | 0.00 | 99 | 1053.1 |
| 20260905105914 | 70 | 229 | 0.0 | 0.0 | 0.00 | 0.00 | 0.00 | 99 | 1053.1 |
| 20260905105414 | 71 | 207 | 1.0 | 1.0 | 0.00 | 0.00 | 0.00 | 99 | 1053.2 |
| 20260905104908 | 70 | 233 | 0.0 | 1.0 | 0.00 | 0.00 | 0.00 | 99 | 1053.4 |
| 20260905104404 | 70 | 252 | 0.0 | 1.0 | 0.00 | 0.00 | 0.00 | 99 | 1053.1 |
| 20260905103859 | 70 | 268 | 0.0 | 1.0 | 0.00 | 0.00 | 0.00 | 99 | 1053.2 |
| 20260905103354 | 70 | 183 | 1.0 | 1.0 | 0.00 | 0.00 | 0.00 | 99 | 1053.2 |
| 20260905102850 | 70 | 212 | 0.0 | 1.0 | 0.00 | 0.00 | 0.00 | 99 | 1053.2 |
| 20260905102346 | 70 | 211 | 0.0 | 0.0 | 0.00 | 0.00 | 0.00 | 99 | 1053.4 |
| 20260905101840 | 70 | 238 | 0.0 | 0.0 | 0.00 | 0.00 | 0.00 | 99 | 1053.5 |
| 20260905101338 | 70 | 262 | 0.0 | 1.0 | 0.00 | 0.00 | 0.00 | 99 | 1053.4 |
| 20260905100832 | 70 | 236 | 0.0 | 0.0 | 0.00 | 0.00 | 0.00 | 99 | 1053.2 |
| 20260905100329 | 70 | 234 | 0.0 | 0.0 | 0.00 | 0.00 | 0.00 | 99 | 1053.5 |
| 20260905095828 | 70 | 227 | 0.0 | 0.0 | 0.00 | 0.00 | 0.00 | 99 | 1053.2 |
| 20260905095323 | 71 | 224 | 0.0 | 0.0 | 0.00 | 0.00 | 0.00 | 99 | 1053.1 |
| 20260905094818 | 71 | 263 | 0.0 | 0.0 | 0.00 | 0.00 | 0.00 | 99 | 1053.1 |
| 20260905094313 | 71 | 253 | 0.0 | 0.0 | 0.00 | 0.00 | 0.00 | 99 | 1052.8 |
| 20260905093811 | 71 | 243 | 0.0 | 1.0 | 0.00 | 0.00 | 0.00 | 99 | 1052.6 |
| 20260905093308 | 71 | 205 | 0.0 | 1.0 | 0.00 | 0.00 | 0.00 | 99 | 1052.7 |
| 20260905092803 | 71 | 246 | 0.0 | 1.0 | 0.00 | 0.00 | 0.00 | 99 | 1052.6 |
| 20260905092259 | 71 | 232 | 0.0 | 1.0 | 0.00 | 0.00 | 0.00 | 99 | 1052.7 |
| 20260905091758 | 72 | 221 | 0.0 | 0.0 | 0.00 | 0.00 | 0.00 | 99 | 1052.9 |
| 20260905091253 | 72 | 254 | 1.0 | 1.0 | 0.00 | 0.00 | 0.00 | 99 | 1053.0 |
| 20260905090752 | 72 | 203 | 1.0 | 1.0 | 0.00 | 0.00 | 0.00 | 99 | 1053.0 |
| 20260905090248 | 72 | 231 | 0.0 | 0.0 | 0.00 | 0.00 | 0.00 | 99 | 1052.8 |
| 20260905085747 | 72 | 238 | 0.0 | 1.0 | 0.00 | 0.00 | 0.00 | 99 | 1053.2 |
| 20260905085247 | 72 | 284 | 0.0 | 1.0 | 0.00 | 0.00 | 0.00 | 99 | 1053.0 |
| 20260905084742 | 72 | 224 | 0.0 | 0.0 | 0.00 | 0.00 | 0.00 | 99 | 1053.0 |
| 20260905084242 | 72 | 243 | 0.0 | 1.0 | 0.00 | 0.00 | 0.00 | 99 | 1052.8 |
| 20260905083736 | 72 | 240 | 0.0 | 0.0 | 0.00 | 0.00 | 0.00 | 99 | 1052.9 |
| 20260905083232 | 72 | 276 | 0.0 | 1.0 | 0.00 | 0.00 | 0.00 | 99 | 1052.9 |
| 20260905082727 | 72 | 205 | 0.0 | 1.0 | 0.00 | 0.00 | 0.00 | 99 | 1053.1 |
| 20260905082223 | 72 | 226 | 0.0 | 1.0 | 0.00 | 0.00 | 0.00 | 99 | 1053.1 |
| 20260905081718 | 71 | 195 | 0.0 | 0.0 | 0.00 | 0.00 | 0.00 | 99 | 1052.8 |
| 20260905081214 | 72 | 222 | 0.0 | 1.0 | 0.00 | 0.00 | 0.00 | 99 | 1052.8 |
| 20260905080713 | 71 | 215 | 0.0 | 1.0 | 0.00 | 0.00 | 0.00 | 99 | 1052.9 |
| 20260905080212 | 71 | 204 | 0.0 | 1.0 | 0.00 | 0.00 | 0.00 | 99 | 1053.1 |
| 20260905075712 | 71 | 210 | 0.0 | 0.0 | 0.00 | 0.00 | 0.00 | 99 | 1053.0 |
| 20260905075211 | 71 | 223 | 0.0 | 1.0 | 0.00 | 0.00 | 0.00 | 99 | 1052.9 |
| 20260905074710 | 71 | 115 | 0.0 | 0.0 | 0.00 | 0.00 | 0.00 | 99 | 1053.1 |
| 20260905074206 | 71 | 194 | 0.0 | 0.0 | 0.00 | 0.00 | 0.00 | 99 | 1053.2 |
| 20260905073701 | 71 | 256 | 0.0 | 0.0 | 0.00 | 0.00 | 0.00 | 99 | 1053.2 |
| 20260905073157 | 71 | 216 | 0.0 | 0.0 | 0.00 | 0.00 | 0.00 | 99 | 1053.1 |
| 20260905072656 | 70 | 226 | 0.0 | 0.0 | 0.00 | 0.00 | 0.00 | 99 | 1053.1 |
| 20260905072151 | 71 | 243 | 0.0 | 0.0 | 0.00 | 0.00 | 0.00 | 99 | 1053.2 |
| 20260905071648 | 71 | 239 | 0.0 | 0.0 | 0.00 | 0.00 | 0.00 | 99 | 1052.9 |
| 20260905071143 | 71 | 230 | 0.0 | 0.0 | 0.00 | 0.00 | 0.00 | 99 | 1053.1 |
| 20260905070638 | 72 | 230 | 0.0 | 0.0 | 0.00 | 0.00 | 0.00 | 99 | 1052.9 |
| 20260905070134 | 72 | 230 | 0.0 | 0.0 | 0.00 | 0.00 | 0.00 | 99 | 1053.1 |
| 20260905065633 | 72 | 224 | 0.0 | 0.0 | 0.00 | 0.00 | 0.00 | 99 | 1053.0 |
| 20260905065127 | 72 | 234 | 0.0 | 0.0 | 0.00 | 0.00 | 0.00 | 99 | 1053.1 |
| 20260905064622 | 72 | 244 | 0.0 | 0.0 | 0.00 | 0.00 | 0.00 | 99 | 1053.2 |
| 20260905064118 | 72 | 194 | 0.0 | 0.0 | 0.00 | 0.00 | 0.00 | 99 | 1053.1 |
| 20260905063616 | 72 | 219 | 0.0 | 0.0 | 0.00 | 0.00 | 0.00 | 99 | 1053.2 |
| 20260905063113 | 72 | 222 | 0.0 | 0.0 | 0.00 | 0.00 | 0.00 | 99 | 1053.1 |
| 20260905062608 | 72 | 210 | 0.0 | 0.0 | 0.00 | 0.00 | 0.00 | 99 | 1053.2 |
| 20260905062103 | 72 | 232 | 0.0 | 0.0 | 0.00 | 0.00 | 0.00 | 99 | 1053.2 |
| 20260905061557 | 72 | 252 | 0.0 | 0.0 | 0.00 | 0.00 | 0.00 | 99 | 1053.0 |
| 20260905061057 | 72 | 232 | 0.0 | 0.0 | 0.00 | 0.00 | 0.00 | 99 | 1053.0 |
| 20260905060553 | 71 | 242 | 0.0 | 0.0 | 0.00 | 0.00 | 0.00 | 99 | 1052.8 |
| 20260905060048 | 72 | 242 | 0.0 | 0.0 | 0.00 | 0.00 | 0.00 | 99 | 1052.8 |
| 20260905055547 | 72 | 211 | 0.0 | 0.0 | 0.00 | 0.00 | 0.00 | 99 | 1052.8 |
| 20260905055041 | 71 | 230 | 0.0 | 0.0 | 0.00 | 0.00 | 0.00 | 99 | 1052.7 |
| 20260905054537 | 71 | 240 | 0.0 | 0.0 | 0.00 | 0.00 | 0.00 | 99 | 1052.7 |
| 20260905054033 | 71 | 195 | 1.0 | 1.0 | 0.00 | 0.00 | 0.00 | 99 | 1052.8 |
| 20260905053527 | 72 | 251 | 0.0 | 0.0 | 0.00 | 0.00 | 0.00 | 99 | 1052.8 |
| 20260905053023 | 72 | 242 | 0.0 | 1.0 | 0.00 | 0.00 | 0.00 | 99 | 1052.7 |
| 20260905052522 | 72 | 253 | 0.0 | 0.0 | 0.00 | 0.00 | 0.00 | 99 | 1052.9 |
| 20260905052021 | 72 | 203 | 0.0 | 0.0 | 0.00 | 0.00 | 0.00 | 99 | 1052.9 |
| 20260905051517 | 72 | 357 | 2.0 | 3.0 | 0.00 | 0.00 | 0.00 | 99 | 1053.0 |
| 20260905051014 | 72 | 232 | 0.0 | 0.0 | 0.00 | 0.00 | 0.00 | 99 | 1052.8 |
| 20260905050510 | 72 | 232 | 0.0 | 0.0 | 0.00 | 0.00 | 0.00 | 99 | 1052.8 |
| 20260905050007 | 72 | 233 | 0.0 | 0.0 | 0.00 | 0.06 | 0.06 | 99 | 1052.7 |
| 20260905045455 | 72 | 233 | 0.0 | 0.0 | 0.00 | 0.06 | 0.06 | 99 | 1052.5 |
| 20260905044950 | 73 | 233 | 0.0 | 0.0 | 0.00 | 0.06 | 0.06 | 99 | 1052.5 |
| 20260905044445 | 73 | 232 | 0.0 | 0.0 | 0.00 | 0.06 | 0.06 | 99 | 1052.4 |
| 20260905043944 | 73 | 232 | 0.0 | 0.0 | 0.00 | 0.06 | 0.06 | 99 | 1052.4 |
| 20260905043443 | 73 | 231 | 0.0 | 0.0 | 0.00 | 0.06 | 0.06 | 99 | 1052.4 |
| 20260905042938 | 73 | 232 | 0.0 | 0.0 | 0.00 | 0.06 | 0.06 | 99 | 1052.6 |
| 20260905042433 | 73 | 232 | 0.0 | 0.0 | 0.00 | 0.06 | 0.06 | 99 | 1052.6 |
| 20260905041928 | 73 | 232 | 0.0 | 0.0 | 0.00 | 0.06 | 0.06 | 99 | 1052.7 |
| 20260905041419 | 73 | 232 | 0.0 | 0.0 | 0.00 | 0.06 | 0.06 | 99 | 1052.6 |
| 20260905040918 | 73 | 230 | 0.0 | 0.0 | 0.00 | 0.06 | 0.06 | 99 | 1052.6 |
| 20260905040412 | 73 | 237 | 0.0 | 0.0 | 0.00 | 0.06 | 0.06 | 99 | 1052.7 |
| 20260905035911 | 74 | 237 | 0.0 | 0.0 | 0.00 | 0.06 | 0.06 | 99 | 1052.5 |
| 20260905035407 | 74 | 244 | 0.0 | 0.0 | 0.00 | 0.06 | 0.06 | 99 | 1052.5 |
| 20260905034904 | 74 | 231 | 0.0 | 0.0 | 0.00 | 0.06 | 0.06 | 99 | 1052.6 |
| 20260905034359 | 74 | 246 | 0.0 | 0.0 | 0.00 | 0.06 | 0.06 | 99 | 1052.6 |
| 20260905033857 | 74 | 239 | 0.0 | 0.0 | 0.00 | 0.06 | 0.06 | 99 | 1052.6 |
| 20260905033353 | 75 | 252 | 0.0 | 0.0 | 0.00 | 0.06 | 0.06 | 99 | 1052.6 |
| 20260905032852 | 75 | 238 | 0.0 | 0.0 | 0.00 | 0.06 | 0.06 | 99 | 1052.5 |
| 20260905032348 | 75 | 237 | 0.0 | 0.0 | 0.00 | 0.06 | 0.06 | 99 | 1052.6 |
| 20260905031843 | 75 | 237 | 0.0 | 0.0 | 0.00 | 0.06 | 0.06 | 98 | 1052.5 |
| 20260905031339 | 75 | 237 | 0.0 | 0.0 | 0.00 | 0.06 | 0.06 | 98 | 1052.5 |
| 20260905030833 | 75 | 237 | 0.0 | 0.0 | 0.00 | 0.06 | 0.06 | 98 | 1052.7 |
| 20260905030329 | 75 | 237 | 0.0 | 0.0 | 0.00 | 0.06 | 0.06 | 98 | 1052.7 |
| 20260905025828 | 75 | 237 | 0.0 | 0.0 | 0.00 | 0.06 | 0.06 | 98 | 1052.7 |
| 20260905025324 | 76 | 237 | 0.0 | 0.0 | 0.00 | 0.06 | 0.06 | 98 | 1052.7 |
| 20260905024820 | 76 | 237 | 0.0 | 0.0 | 0.00 | 0.06 | 0.06 | 98 | 1052.6 |
| 20260905024315 | 76 | 237 | 0.0 | 0.0 | 0.00 | 0.06 | 0.06 | 98 | 1052.4 |
| 20260905023811 | 76 | 237 | 0.0 | 0.0 | 0.00 | 0.06 | 0.06 | 97 | 1052.5 |
| 20260905023307 | 76 | 238 | 0.0 | 0.0 | 0.00 | 0.06 | 0.06 | 97 | 1052.3 |
| 20260905022805 | 77 | 229 | 0.0 | 0.0 | 0.00 | 0.06 | 0.06 | 97 | 1052.3 |
| 20260905022301 | 77 | 229 | 0.0 | 0.0 | 0.00 | 0.06 | 0.06 | 97 | 1052.3 |
| 20260905021800 | 77 | 229 | 0.0 | 0.0 | 0.00 | 0.06 | 0.06 | 96 | 1052.4 |
| 20260905021255 | 77 | 229 | 0.0 | 0.0 | 0.00 | 0.06 | 0.06 | 96 | 1052.3 |
| 20260905020749 | 77 | 228 | 0.0 | 0.0 | 0.00 | 0.06 | 0.06 | 96 | 1052.0 |
| 20260905020245 | 77 | 228 | 0.0 | 0.0 | 0.00 | 0.06 | 0.06 | 96 | 1052.3 |
| 20260905015743 | 77 | 228 | 0.0 | 0.0 | 0.00 | 0.06 | 0.06 | 95 | 1052.2 |
| 20260905015238 | 78 | 232 | 0.0 | 0.0 | 0.00 | 0.06 | 0.06 | 94 | 1052.2 |
| 20260905014732 | 78 | 232 | 0.0 | 0.0 | 0.00 | 0.06 | 0.06 | 94 | 1052.0 |
| 20260905014227 | 78 | 231 | 0.0 | 0.0 | 0.00 | 0.06 | 0.06 | 94 | 1051.8 |
| 20260905013723 | 79 | 231 | 0.0 | 0.0 | 0.00 | 0.06 | 0.06 | 93 | 1051.8 |
| 20260905013219 | 79 | 231 | 0.0 | 0.0 | 0.00 | 0.06 | 0.06 | 93 | 1051.8 |
| 20260905012714 | 79 | 231 | 0.0 | 0.0 | 0.00 | 0.06 | 0.06 | 92 | 1051.8 |
| 20260905012210 | 80 | 231 | 0.0 | 0.0 | 0.00 | 0.06 | 0.06 | 91 | 1051.6 |
| 20260905011706 | 80 | 236 | 0.0 | 0.0 | 0.00 | 0.06 | 0.06 | 90 | 1051.6 |
| 20260905011202 | 81 | 237 | 0.0 | 0.0 | 0.00 | 0.06 | 0.06 | 89 | 1051.6 |
| 20260905010701 | 81 | 224 | 0.0 | 0.0 | 0.00 | 0.06 | 0.06 | 88 | 1051.7 |
| 20260905010157 | 81 | 235 | 0.0 | 0.0 | 0.00 | 0.06 | 0.06 | 88 | 1051.5 |
| 20260905005653 | 82 | 221 | 0.0 | 1.0 | 0.00 | 0.06 | 0.06 | 87 | 1051.5 |
| 20260905005148 | 82 | 232 | 0.0 | 0.0 | 0.00 | 0.06 | 0.06 | 86 | 1051.7 |
| 20260905004643 | 82 | 236 | 0.0 | 1.0 | 0.00 | 0.06 | 0.06 | 86 | 1051.4 |
| 20260905004138 | 83 | 220 | 0.0 | 0.0 | 0.00 | 0.06 | 0.06 | 85 | 1051.6 |
| 20260905003633 | 83 | 228 | 1.0 | 1.0 | 0.00 | 0.06 | 0.06 | 84 | 1051.5 |
| 20260905003129 | 84 | 221 | 0.0 | 1.0 | 0.00 | 0.06 | 0.06 | 84 | 1051.4 |
| 20260905002624 | 84 | 228 | 0.0 | 0.0 | 0.00 | 0.06 | 0.06 | 84 | 1051.5 |
| 20260905002119 | 84 | 205 | 1.0 | 3.0 | 0.00 | 0.06 | 0.06 | 83 | 1051.6 |
| 20260905001614 | 85 | 219 | 1.0 | 2.0 | 0.00 | 0.06 | 0.06 | 83 | 1051.7 |
| 20260905001108 | 85 | 230 | 0.0 | 1.0 | 0.00 | 0.06 | 0.06 | 82 | 1051.5 |
| 20260905000604 | 85 | 221 | 0.0 | 2.0 | 0.00 | 0.06 | 0.06 | 81 | 1051.5 |
| 20260905000100 | 86 | 214 | 1.0 | 1.0 | 0.00 | 0.06 | 0.06 | 81 | 1051.6 |
| 20260904235559 | 86 | 221 | 0.0 | 1.0 | 0.00 | 0.06 | 0.06 | 80 | 1051.5 |
| 20260904235059 | 86 | 219 | 1.0 | 3.0 | 0.00 | 0.06 | 0.06 | 79 | 1051.5 |
| 20260904234554 | 86 | 216 | 2.0 | 2.0 | 0.00 | 0.06 | 0.06 | 78 | 1051.4 |
| 20260904234051 | 87 | 230 | 0.0 | 2.0 | 0.00 | 0.06 | 0.06 | 78 | 1051.5 |
| 20260904233550 | 87 | 213 | 1.0 | 1.0 | 0.00 | 0.06 | 0.06 | 78 | 1051.7 |
| 20260904233047 | 87 | 229 | 0.0 | 2.0 | 0.00 | 0.06 | 0.06 | 78 | 1051.4 |
| 20260904232543 | 87 | 205 | 1.0 | 3.0 | 0.00 | 0.06 | 0.06 | 78 | 1051.5 |
| 20260904232039 | 87 | 213 | 1.0 | 3.0 | 0.00 | 0.06 | 0.06 | 77 | 1051.6 |
| 20260904231535 | 87 | 228 | 0.0 | 1.0 | 0.00 | 0.06 | 0.06 | 76 | 1051.5 |
| 20260904231030 | 87 | 219 | 1.0 | 2.0 | 0.00 | 0.06 | 0.06 | 75 | 1051.6 |
| 20260904230529 | 88 | 228 | 0.0 | 4.0 | 0.00 | 0.06 | 0.06 | 74 | 1051.5 |
| 20260904230025 | 88 | 212 | 1.0 | 2.0 | 0.00 | 0.06 | 0.06 | 74 | 1051.4 |
| 20260904225522 | 88 | 182 | 2.0 | 6.0 | 0.00 | 0.06 | 0.06 | 73 | 1051.3 |
| 20260904225021 | 89 | 185 | 3.0 | 4.0 | 0.00 | 0.06 | 0.06 | 70 | 1051.4 |
| 20260904224517 | 89 | 177 | 3.0 | 6.0 | 0.00 | 0.06 | 0.06 | 70 | 1051.6 |
| 20260904224017 | 89 | 239 | 1.0 | 2.0 | 0.00 | 0.06 | 0.06 | 71 | 1051.2 |
| 20260904223516 | 89 | 178 | 2.0 | 4.0 | 0.00 | 0.06 | 0.06 | 70 | 1051.1 |
| 20260904223012 | 89 | 208 | 4.0 | 4.0 | 0.00 | 0.06 | 0.06 | 69 | 1051.1 |
| 20260904222507 | 89 | 239 | 1.0 | 7.0 | 0.00 | 0.06 | 0.06 | 71 | 1051.1 |
| 20260904222008 | 89 | 197 | 4.0 | 4.0 | 0.00 | 0.06 | 0.06 | 71 | 1051.1 |
| 20260904221502 | 89 | 224 | 4.0 | 8.0 | 0.00 | 0.06 | 0.06 | 71 | 1051.1 |
| 20260904220957 | 89 | 220 | 3.0 | 4.0 | 0.00 | 0.06 | 0.06 | 71 | 1051.0 |
| 20260904220456 | 90 | 207 | 4.0 | 6.0 | 0.00 | 0.06 | 0.06 | 73 | 1051.1 |
| 20260904215952 | 89 | 236 | 5.0 | 7.0 | 0.00 | 0.06 | 0.06 | 72 | 1050.9 |
| 20260904215447 | 89 | 241 | 4.0 | 6.0 | 0.00 | 0.06 | 0.06 | 73 | 1050.9 |
| 20260904214943 | 90 | 248 | 2.0 | 4.0 | 0.00 | 0.06 | 0.06 | 74 | 1050.8 |
| 20260904214438 | 89 | 246 | 4.0 | 6.0 | 0.00 | 0.06 | 0.06 | 74 | 1050.8 |
| 20260904213933 | 89 | 231 | 3.0 | 10.0 | 0.00 | 0.06 | 0.06 | 73 | 1050.9 |
| 20260904213426 | 90 | 247 | 5.0 | 8.0 | 0.00 | 0.06 | 0.06 | 72 | 1051.0 |
| 20260904212923 | 90 | 198 | 2.0 | 7.0 | 0.00 | 0.06 | 0.06 | 72 | 1050.9 |
| 20260904212422 | 90 | 169 | 1.0 | 6.0 | 0.00 | 0.06 | 0.06 | 71 | 1050.8 |